Dewpoint
54 54 55 54 52 52 51 50 51 51 51 51 51 51 51 52 53 49 44 37 41 51 53 24 25 28 19 19 19 16 14 14 13 13 14 13 13 16 18 29 29 34 35 36 40
53 53 54 54 54 53 52 51 51 50 51 51 51 51 51 52 49 46 45 51 55 58 32 21 18 25 21 20 18 13 13 13 16 17 15 15 15 15 15 19 25 30 35 34 31
52 52 53 53 54 54 53 52 52 52 51 51 51 51 51 52 44 37 52 55 56 57 28 23 19 19 21 18 14 12 12 17 18 18 18 16 15 16 16 18 24 24 26 22 28
52 51 52 51 52 53 54 54 52 52 52 51 51 51 53 50 29 40 62 59 60 46 21 16 13 13 15 14 14 11 12 12 12 14 16 15 16 17 14 14 20 19 24 20 21
52 52 52 51 51 52 53 53 53 52 52 52 51 50 49 44 35 37 63 59 53 26 18 13 11 21 16 13 14 11 11 12 14 15 16 15 14 15 14 16 19 19 22 20 20
53 53 53 52 52 52 53 53 54 52 53 52 51 51 47 24 28 51 50 47 31 24 20 15 20 24 18 16 12 13 13 12 13 13 15 13 13 17 15 17 15 15 16 16 17
54 55 54 53 53 53 53 53 53 53 51 52 52 51 46 33 36 47 36 29 27 25 24 19 17 23 20 20 16 13 11 12 13 13 13 14 12 12 15 16 14 14 15 17 17
55 55 55 55 54 53 52 52 52 54 52 52 52 50 42 43 42 36 34 30 28 25 29 32 28 23 22 23 19 17 15 11 10 13 13 12 10 13 15 15 16 16 17 21 21
55 55 55 54 54 53 53 52 52 55 53 52 50 47 41 48 43 37 34 33 30 27 26 28 28 25 25 19 17 17 14 15 15 15 13 12 10 14 16 16 17 18 18 20 21
54 55 54 54 54 54 53 51 52 54 52 51 48 43 42 38 33 27 33 33 33 33 27 25 23 22 20 19 15 14 15 15 15 16 14 13 13 13 15 15 16 19 20 20 20
55 54 53 53 53 53 50 46 49 48 48 41 40 39 36 40 35 29 18 22 31 24 20 25 20 19 19 19 19 18 16 15 16 15 14 13 14 13 15 15 17 20 22 23 24
54 53 53 53 53 53 49 43 42 38 37 47 43 39 34 40 37 21 18 16 31 22 22 22 19 21 22 22 20 19 16 15 17 18 16 17 15 16 17 17 19 20 22 23 24
54 53 52 52 53 49 45 44 42 40 36 33 44 42 40 39 36 28 15 21 29 27 22 20 20 22 21 22 22 20 18 17 18 19 20 18 15 16 19 21 19 21 23 24 25
52 52 52 52 47 45 44 46 45 41 33 33 32 39 38 36 31 33 16 17 25 26 25 23 23 22 21 21 22 19 19 18 17 18 14 16 13 15 15 19 22 21 21 23 27
52 52 51 52 47 44 44 45 41 40 26 35 32 36 35 29 30 29 30 28 23 24 24 22 25 23 22 19 24 19 23 21 22 16 17 16 14 15 22 19 20 22 24 24 23
52 52 51 48 48 46 47 47 41 34 30 29 28 28 32 33 29 29 29 28 28 26 26 25 27 25 22 22 22 22 24 21 20 18 14 15 16 17 17 18 21 21 30 31 35
52 52 50 48 42 46 44 41 31 31 36 29 28 27 28 28 28 26 26 25 24 21 22 24 23 24 24 22 24 21 20 17 16 14 15 19 18 18 20 28 31 31 34 34 35
52 51 49 48 48 45 44 36 29 33 35 37 31 27 26 27 26 24 26 25 28 24 23 23 22 25 27 23 20 18 19 18 15 17 17 23 21 24 31 35 34 35 34 33 32
50 45 46 46 46 45 41 34 34 37 29 27 27 25 26 27 30 27 27 27 28 28 23 31 28 33 32 31 31 27 23 23 23 27 24 24 26 29 35 37 36 34 33 33 34
47 44 43 49 46 45 40 37 40 39 29 30 29 32 32 34 35 34 29 34 34 35 35 34 30 33 33 31 31 30 30 26 28 24 22 27 26 26 35 36 36 36 36 35 35
43 45 48 49 47 42 38 40 41 39 32 33 33 31 32 35 36 35 35 34 35 35 37 34 32 32 32 31 29 29 29 29 29 33 26 23 26 35 35 35 36 38 37 37 37
42 42 47 46 39 41 40 43 44 42 34 33 33 35 35 34 32 32 35 36 36 37 35 37 35 33 32 33 35 31 31 37 33 29 32 27 27 34 35 34 35 35 36 37 37
40 41 47 45 37 39 44 40 44 41 32 32 35 35 36 33 29 33 35 37 36 39 38 37 33 27 23 31 35 35 35 36 39 39 36 34 33 36 37 35 35 33 31 33 35
41 40 43 43 42 39 38 39 38 40 34 32 32 33 31 31 32 31 33 35 37 41 45 39 34 28 23 28 32 31 31 30 33 35 34 34 34 36 36 36 34 36 36 35 35
42 42 40 37 37 37 36 35 31 35 31 31 33 34 31 29 29 31 32 33 40 44 40 36 30 33 33 32 32 30 30 30 29 28 30 28 29 30 34 33 33 33 35 35 36
43 41 41 41 43 38 35 32 32 31 32 32 32 32 31 31 32 30 31 32 32 39 37 38 31 33 32 33 32 30 30 30 29 29 28 28 28 29 29 31 33 35 36 36 36
45 45 41 39 38 40 34 34 33 32 32 31 31 31 34 34 34 33 34 34 33 33 35 35 33 31 27 30 29 24 24 25 27 27 28 26 32 36 35 33 34 35 36 36 36
Lifted_Index
10 10 10 10 10 10 11 11 11 11 11 11 11 11 11 12 11 11 10 10 11 11 11 11 10 9 9 8 9 8 6 4 3 2 2 3 5 5 4 3 2 1 -0 0 1
10 10 10 10 10 10 11 11 11 11 11 11 11 11 11 11 11 10 10 11 11 11 11 11 10 9 9 8 8 8 6 4 3 3 3 4 5 5 4 3 3 2 3 3 4
11 11 11 11 10 10 11 11 11 11 11 11 11 11 11 11 9 8 8 9 10 10 11 11 10 9 8 8 8 7 6 5 5 5 5 5 5 5 4 4 4 5 5 6 6
11 11 11 11 11 11 11 11 11 11 11 12 12 12 11 10 8 6 6 6 8 9 10 10 10 9 7 7 8 7 7 6 6 6 6 6 6 6 6 5 5 6 7 7 7
11 11 11 11 11 10 10 11 11 12 12 12 12 12 11 9 7 6 5 6 7 9 10 9 9 8 7 7 7 7 7 7 7 7 7 7 7 7 6 6 6 6 7 7 7
11 11 11 10 10 10 10 10 11 12 12 12 12 11 10 9 8 6 6 7 9 10 9 9 8 8 7 7 8 8 7 7 7 7 7 7 7 7 7 6 6 6 6 7 7
11 10 10 10 9 9 9 10 10 11 11 11 11 11 10 9 8 7 7 9 10 10 9 8 8 8 8 8 8 8 7 7 7 7 7 7 7 7 7 6 6 6 6 7 7
11 10 10 9 9 9 9 9 10 10 11 11 11 10 9 8 7 7 7 8 8 8 8 8 8 8 8 8 7 7 7 7 6 6 6 6 6 6 6 6 6 6 7 7 7
11 11 10 10 9 9 9 9 9 9 10 10 10 9 8 7 7 7 7 7 7 7 7 7 7 7 7 7 6 6 5 5 5 5 5 5 5 5 5 6 7 7 7 7 7
11 11 11 10 10 10 9 9 8 8 8 8 8 8 7 6 6 7 7 7 6 6 6 6 6 6 6 6 5 4 4 4 4 4 5 6 6 5 5 6 6 7 7 6 7
11 11 11 11 10 10 9 8 6 6 6 6 6 6 6 5 6 7 7 7 6 6 7 7 6 5 6 6 5 5 5 4 4 4 5 6 6 5 5 6 6 6 6 6 6
11 11 11 11 10 9 8 7 6 5 5 5 5 5 5 5 5 6 7 7 6 6 7 7 6 6 6 6 6 6 5 5 5 5 5 5 6 6 6 6 6 6 6 6 6
11 11 11 10 10 8 7 7 7 6 4 3 4 4 4 4 5 6 7 6 6 6 6 6 6 6 6 6 6 5 5 5 5 5 5 5 5 5 5 5 5 5 5 5 5
10 10 10 10 8 7 6 6 7 6 3 2 3 4 4 4 4 5 6 6 5 5 6 6 5 5 5 5 5 5 5 5 5 5 4 4 4 4 4 4 4 4 4 4 4
10 10 10 9 7 6 5 6 6 5 3 2 2 3 4 4 4 5 5 6 5 5 5 5 5 5 5 5 5 5 5 5 5 5 5 4 4 4 4 4 3 3 4 4 4
9 9 9 8 6 5 5 5 5 3 2 2 2 2 3 4 4 4 4 5 5 5 5 5 4 4 4 4 4 4 4 4 4 4 4 5 4 4 3 3 3 3 3 4 4
8 8 7 6 5 5 5 4 3 2 1 1 1 2 2 3 3 3 3 4 3 3 4 3 3 3 3 3 3 3 3 3 3 2 3 4 4 4 3 2 3 3 3 3 3
8 7 5 4 4 4 4 3 2 1 0 1 1 1 1 2 2 2 2 3 3 3 3 2 2 2 2 2 2 2 2 2 1 2 3 3 4 3 2 2 2 2 2 2 3
7 5 4 3 3 3 3 2 1 0 0 1 1 0 0 1 1 2 2 2 2 2 2 2 1 1 1 1 1 1 1 1 2 2 2 3 3 2 1 0 1 1 1 2 2
5 3 2 2 2 2 2 1 -0 -0 1 1 1 0 0 0 1 1 2 2 2 2 2 1 1 1 1 0 0 0 0 1 1 1 1 2 2 1 0 -0 -0 0 1 1 2
4 2 1 1 2 2 1 0 -0 -0 1 1 1 0 0 0 0 0 1 1 2 2 1 1 1 1 1 1 1 0 0 1 1 1 1 2 2 1 0 -0 0 1 1 1 1
3 1 0 1 1 1 0 -0 -1 -0 1 1 1 0 0 -0 -0 -0 0 1 1 1 1 2 2 2 2 2 2 2 1 1 1 1 1 2 2 1 0 0 0 1 1 1 1
3 1 0 0 0 0 0 -0 -1 -0 0 1 1 1 0 0 0 0 1 1 1 1 1 2 3 2 2 2 2 2 2 2 2 2 2 2 2 2 1 1 1 1 1 1 1
2 1 -0 -0 -1 -0 -0 -0 -1 -0 0 1 1 1 1 1 1 1 1 1 2 2 2 3 3 3 3 3 3 3 3 2 2 2 2 3 3 2 2 1 2 2 2 2 2
1 0 -0 -1 -1 -0 -0 -1 -1 -0 0 1 1 2 1 1 2 2 2 2 2 2 2 3 3 3 3 4 4 4 4 3 3 3 3 3 3 3 3 3 3 3 3 3 3
1 1 0 -0 -0 -0 -0 -1 -0 0 0 1 1 2 2 2 2 2 2 2 2 2 2 3 4 4 4 4 4 4 4 4 3 3 3 4 4 3 3 3 3 3 3 3 3
2 1 1 -0 -0 -0 -0 -0 -0 0 1 1 1 2 2 2 2 2 3 3 3 3 3 3 4 4 4 4 4 4 4 4 4 4 4 4 4 3 3 3 3 3 3 3 3